Regional Weather Roundup
Issued by NWS

Home | Current Version | Previous Version | Text Only | Print | Product List | Glossary On
Versions: 1 2 3 4 5 6 7 8 9 10 11 12 13 14 15 16 17 18 19 20 21 22 23 24 25 26 27 28 29 30 31 32 33 34 35 36 37 38 39 40 41 42 43 44 45 46 47 48 49 50
000
ASUS43 KTOP 231808
RWRKS

WEATHER ROUNDUP FOR KANSAS
NATIONAL WEATHER SERVICE GOODLAND KS
100 PM CDT THU MAR 23 2017

NOTE:  "FAIR" INDICATES FEW OR NO CLOUDS BELOW 12,000 FEET WITH NO
SIGNIFICANT WEATHER AND/OR OBSTRUCTIONS TO VISIBILITY.

KSZ001>006-013>018-027>032-041>047-231900-
NORTHWEST KANSAS

CITY           SKY/WX    TMP DP  RH WIND       PRES   REMARKS
GOODLAND       SUNNY     72  50  45 S23G29    29.65F
6HR MIN TEMP:  44; 6HR MAX TEMP:  72;

HAYS             N/A     67  58  72 S22G30    29.72F
HILL CITY      PTSUNNY   72  58  61 SW20G31   29.68F
6HR MIN TEMP:  51; 6HR MAX TEMP:  74;

RUSSELL        CLOUDY    67  57  70 S31G39    29.73F
6HR MIN TEMP:  54; 6HR MAX TEMP:  67;

$$

KSZ061>065-074>080-084>089-231900-
SOUTHWEST KANSAS

CITY           SKY/WX    TMP DP  RH WIND       PRES   REMARKS
DODGE CITY     MOSUNNY   74  56  53 S31G41    29.74F
6HR MIN TEMP:  58; 6HR MAX TEMP:  74;

ELKHART          N/A     76  49  38 S16         N/A
GARDEN CITY    SUNNY     77  56  48 S28G38    29.70F
6HR MIN TEMP:  56; 6HR MAX TEMP:  77;

GREAT BEND     PTSUNNY   69  59  70 S31G38    29.75F
LIBERAL        SUNNY     77  57  50 S25G31    29.75F
PRATT          PTSUNNY   68  56  67 S24G32    29.80F
6HR MIN TEMP:  52; 6HR MAX TEMP:  68;

$$

KSZ066>073-081>083-090>101-231900-
SOUTHEAST KANSAS

CITY           SKY/WX    TMP DP  RH WIND       PRES   REMARKS
CHANUTE        PTSUNNY   74  50  42 S23G32    29.98F
6HR MIN TEMP:  55; 6HR MAX TEMP:  74;

COFFEYVILLE    SUNNY     72  52  49 S24       29.99F
6HR MIN TEMP:  55; 6HR MAX TEMP:  73;

HUTCHINSON     CLOUDY    64  55  72 S25G35    29.84F
6HR MIN TEMP:  56; 6HR MAX TEMP:  64;

MEDICINE LODGE   N/A     72  59  63 S17G29    29.81F
NEWTON         CLOUDY    64  55  72 S29G36    29.86F
PARSONS        SUNNY     73  51  46 S18G29    29.99F
6HR MIN TEMP:  54; 6HR MAX TEMP:  73;

WICHITA INTL   CLOUDY    65  54  67 S23G31    29.87F
6HR MIN TEMP:  54; 6HR MAX TEMP:  65;

WICHITA JABRA  CLOUDY    64  54  69 S25G33    29.87F
6HR MIN TEMP:  53; 6HR MAX TEMP:  64;

WICHITA MCCONL CLOUDY    64  54  68 S23G30    29.88F
WINFIELD       CLOUDY    66  54  65 SE21G29   29.92F
6HR MIN TEMP:  53; 6HR MAX TEMP:  66;

$$

KSZ007>012-019>026-033>040-048>060-102>105-231900-
NORTHEAST KANSAS

CITY           SKY/WX    TMP DP  RH WIND       PRES   REMARKS
CONCORDIA      CLOUDY    67  56  67 S24G37    29.78F
6HR MIN TEMP:  49; 6HR MAX TEMP:  67;

EMPORIA        SUNNY     70  52  52 S32G41    29.89F
6HR MIN TEMP:  54; 6HR MAX TEMP:  70;

LAWRENCE       SUNNY     71  50  47 SE24G31   29.93F
6HR MIN TEMP:  53; 6HR MAX TEMP:  72;

MANHATTAN      MOSUNNY   73  52  47 S26G39    29.83F
6HR MIN TEMP:  51; 6HR MAX TEMP:  73;

MARYSVILLE     PTSUNNY   72  54  53 S24G35    29.80F
OLATHE IND     MOSUNNY   69  49  48 S17G30    29.96F
6HR MIN TEMP:  52; 6HR MAX TEMP:  69;

OLATHE EXE     SUNNY     69  51  52 S17G26    29.96F
6HR MIN TEMP:  50; 6HR MAX TEMP:  69;

SALINA         CLOUDY    70  56  61 S23G38    29.82F
6HR MIN TEMP:  57; 6HR MAX TEMP:  71;

TOPEKA BILLARD SUNNY     75  53  46 S26G33    29.87F
6HR MIN TEMP:  53; 6HR MAX TEMP:  75;

TOPEKA FORBES  MOSUNNY   75  52  44 S24G33    29.88F
6HR MIN TEMP:  55; 6HR MAX TEMP:  75;

$$



USA.gov is the U.S. government's official web portal to all federal, state and local government web resources and services.